Back to catalog

STARLINK-38047

AliveCommunicationsSSO
NORAD 69745·PAYLOAD·🇺🇸 United States

Launched Jul 2, 2026 from Vandenberg Space Force Base

Loading…

Next Passes (next 24 hours)

TLE

FreshSource: CelesTrak SupGP

Epoch: Sep 14, 2026, 21:21 UTC

1 69745C 26150G   26257.89006944  .00071709  00000+0  22269-2 0  2570
2 69745  97.2844  96.9284 0001845  92.6804  73.8399 15.33389852    19

Track STARLINK-38047 in real time with AllMySat

Download on the App Store